User: anonymous   Login
Location: NJAA Observatory
(40.6819°N, 74.8979°W)
Time: 20:15:22
(UTC-05:00)
Language:

Cosmos 1461 - Orbit

View from above orbital plane
View from above orbital plane
View from above satellite
View from above satellite

Ground track
Ground track

The orbit data is extracted from the following two-line orbital elements,

1 14064U 83044A   14332.18474385  .00006355  00000-0  62079-3 0  6978
2 14064 065.0049 282.8658 0096526 047.0758 313.8403 14.89727717584270
Epoch (UTC): 28 November 2014 04:26:01
Eccentricity: 0.0096526
inclination: 65.0049°
perigee height: 531 km
apogee height: 666 km
right ascension of ascending node: 282.8658°
argument of perigee: 47.0758°
revolutions per day: 14.89727717
mean anomaly at epoch: 313.8403°
orbit number at epoch: 58427

The dashed part of the orbit path shows where the satellite is in the earth's shadow,  

DLR